sat.trackr.live / text

‹ back to catalog

STARLINK-4709

NORAD 53778 · 2022-111F

PAYLOAD ACTIVE UNKNOWN

§ Identity

Operator
Country
US
Launch date
2022-09-11
Launch site
AFETR
Launch vehicle
Mass (kg)
RCS (m²)

Purposes: comms

External: N2YO · Heavens-Above · Gunter

§ Orbital elements

Epoch: 2026-09-20T22:14:14.608608Z

Period
94.01 min
Inclination
53.1596°
Eccentricity
0.0001168
Mean motion
15.31704698 rev/d
Perigee alt
469.9 km
Apogee alt
471.5 km
Semi-major
6,848.9 km
B*
2.5048e-5
RAAN
109.8454°
Arg perigee
85.6939°
Mean anomaly
274.4196°
Rev number
22,327

§ Raw data

STARLINK-47091 53778U 22111F   26263.92655797  .00000412  00000+0  25048-4 0  99952 53778  53.1596 109.8454 0001168  85.6939 274.4196 15.31704698223271

JSON: /api/v1/satellites/53778 · /tle

For live sub-satellite position, see the globe view (requires WebGL).

§ Visibility from observer

Set your observer location to see the next 7 days of passes ≥ 10°. The values pass through the URL so the page stays shareable.

No JS? Fill the form by hand. The geolocation button needs JavaScript.